Flag for Madagascar Weather past 2 weeks in Toamasina, Madagascar

Now
75 °F

Passing clouds.


Feels Like: 74 °F
Forecast: 75 / 88 °F
Wind: No wind

Location: Tamatave

Current Time: Apr 28, 2015 at 11:53:03 PM

Latest Report: Apr 28, 2015 at 10:00 PM


Visibility: N/A

Pressure: 29.86 "Hg

Humidity: 94%

Dew point: 73 °F

Location of ToamasinaLocation

Historic Weather in Toamasina — Graph

°F

Toamasina temperature yesterday

Maximum temperature yesterday: 86 °F (at 11:00 AM)
Minimum temperature yesterday: 70 °F (at 6:00 AM)
Average temperature yesterday: 78 °F

Past Weeks' High & Low Weather Summary

 TemperatureHumidityPressure
High88 °F (Apr 22, 11:00 AM)100% (Apr 15, 6:00 AM)30.09 "Hg (Apr 15, 6:00 AM)
Low68 °F (Apr 28, 6:00 AM)58% (Apr 26, 3:00 PM)29.83 "Hg (Apr 28, 2:00 PM)
Average79 °F84%29.97 "Hg
* Reported Apr 13 10:00 PM — Apr 28 10:00 PM, Toamasina, Weather by CustomWeather, © 2015

Note: Actual official high and low records may vary slightly from our data, if they occured in-between our weather recording intervals... More about our weather records

Advertising

Toamasina weather history for previous 24 hours

 ConditionsComfort  
Time TempWeatherWind HumidityBarometerVisibility
10:00 PM
Tue, Apr 28
75 °FPassing clouds.No wind94%29.86 "HgN/A
9:00 PM75 °FPassing clouds.No wind94%29.86 "HgN/A
8:00 PM77 °FPassing clouds.No wind94%29.86 "HgN/A
7:00 PM79 °FPartly cloudy.2 mph89%29.83 "HgN/A
6:00 PM81 °FPartly cloudy.2 mph84%29.83 "HgN/A
5:00 PM82 °FPartly sunny.7 mph79%29.83 "HgN/A
4:00 PM84 °FPartly sunny.7 mph74%29.83 "HgN/A
3:00 PM86 °FPartly sunny.9 mph70%29.83 "HgN/A
2:00 PM86 °FPartly sunny.9 mph70%29.83 "HgN/A
1:00 PM86 °FPartly sunny.7 mph70%29.86 "HgN/A
12:00 PM86 °FPartly sunny.5 mph66%29.86 "HgN/A
11:00 AM84 °FPartly sunny.5 mph66%29.89 "HgN/A
10:00 AM86 °FPartly sunny.5 mph62%29.89 "HgN/A
9:00 AM81 °FPartly sunny.2 mph79%29.89 "HgN/A
8:00 AM73 °FPartly sunny.5 mph94%29.89 "HgN/A
7:00 AM70 °FPartly sunny.No wind100%29.89 "HgN/A
6:00 AM68 °FScattered clouds.No wind100%29.86 "HgN/A
5:00 AM70 °FPassing clouds.No wind100%29.86 "HgN/A
4:00 AM70 °FPassing clouds.No wind100%29.86 "HgN/A
3:00 AM70 °FPassing clouds.No wind100%29.86 "HgN/A
2:00 AM72 °FPassing clouds.No wind100%29.89 "HgN/A
1:00 AM72 °FPassing clouds.No wind100%29.89 "HgN/A
12:00 AM72 °FPassing clouds.No wind100%29.89 "HgN/A
11:00 PM
Mon, Apr 27
73 °FPassing clouds.No wind94%29.92 "HgN/A
Weather by CustomWeather, © 2015

See weather overviewHow to use our weather pages